Flag for South Korea Weather past 2 weeks in Daegu, South Korea

Now
55 °F

Drizzle. Fog.


Feels Like: 53 °F
Forecast: 48 / 62 °F
Wind: 8 mph from Southeast

Location: Taegu Ab

Current Time: Apr 20, 2015 at 6:28:12 AM

Latest Report: Apr 20, 2015 at 6:00 AM


Visibility: 2 mi

Pressure: 29.56 "Hg

Humidity: 88%

Dew point: 52 °F

Location of DaeguLocation

Historic Weather in Daegu — Graph

°F

Daegu temperature yesterday

Maximum temperature yesterday: 63 °F (at 4:00 PM)
Minimum temperature yesterday: 52 °F (at 7:00 AM)
Average temperature yesterday: 57 °F

Past Weeks' High & Low Weather Summary

 TemperatureHumidityPressure
High73 °F (Apr 16, 2:00 PM)94% (Apr 5, 9:00 PM)30.35 "Hg (Apr 5, 9:00 PM)
Low37 °F (Apr 9, 6:00 AM)16% (Apr 17, 1:00 PM)29.56 "Hg (Apr 20, 4:00 AM)
Average53 °F67%30.03 "Hg
* Reported Apr 5 5:00 AM — Apr 20 5:00 AM, Daegu, Weather by CustomWeather, © 2015

Note: Actual official high and low records may vary slightly from our data, if they occured in-between our weather recording intervals... More about our weather records

Advertising

Daegu weather history for previous 24 hours

 ConditionsComfort  
Time TempWeatherWind HumidityBarometerVisibility
5:00 AM
Mon, Apr 20
55 °FDrizzle. Fog.7 mph88%29.56 "Hg2 mi
4:00 AM55 °FDrizzle. Fog.13 mph88%29.56 "Hg2 mi
2:55 AM55 °FDrizzle. Fog.10 mph88%29.57 "Hg2 mi
1:56 AM55 °FDrizzle. Fog.5 mph88%29.59 "Hg2 mi
11:55 PM
Sun, Apr 19
57 °FDrizzle. Fog.6 mph88%29.61 "Hg2 mi
11:00 PM57 °FDrizzle. Fog.8 mph94%29.62 "Hg2 mi
10:00 PM59 °FLight rain. Fog.7 mph88%29.62 "Hg2 mi
9:00 PM59 °FLight rain. Fog.8 mph94%29.62 "Hg2 mi
8:00 PM63 °FLight rain. Fog.2 mph94%29.62 "Hg2 mi
7:00 PM63 °FLight rain. Fog.2 mph94%29.62 "Hg2 mi
6:53 PM54 °FLight rain. More clouds than sun.1 mph82%29.90 "HgN/A
6:00 PM63 °FLight rain. Fog.5 mph94%29.62 "Hg1 mi
5:53 PM63 °FLight rain. Fog.3 mph94%29.64 "Hg1 mi
5:00 PM63 °FLight rain. Fog.5 mph94%29.65 "Hg1 mi
4:00 PM63 °FLight rain. Fog.3 mph94%29.65 "Hg1 mi
3:00 PM61 °FLight rain. Fog.1 mph94%29.68 "Hg1 mi
2:00 PM59 °FLight rain. Fog.2 mph94%29.71 "Hg1 mi
1:00 PM59 °FLight rain. Fog.1 mph94%29.74 "Hg1 mi
12:00 PM57 °FLight rain. Fog.2 mph94%29.77 "Hg1 mi
11:00 AM55 °FLight rain. Fog.1 mph94%29.83 "Hg2 mi
10:00 AM55 °FLight rain. Fog.1 mph94%29.83 "Hg2 mi
9:00 AM54 °FLight rain. Fog.6 mph94%29.86 "Hg2 mi
8:00 AM54 °FLight rain. Fog.3 mph94%29.86 "Hg3 mi
7:00 AM52 °FLight rain. Fog.3 mph94%29.86 "Hg3 mi
6:00 AM54 °FLight rain. Fog.2 mph94%29.86 "Hg3 mi
Weather by CustomWeather, © 2015

See weather overviewHow to use our weather pages